Helicity
79 64 48 53 48 40 38 46 63 68 65 66 60 41 22 22 44 78 105 116 121 127 133 146 156 169 184
69 70 61 67 47 44 56 49 34 46 53 60 62 67 90 82 73 77 85 96 105 120 137 160 163 158 156
90 92 77 73 63 64 64 68 63 58 56 54 53 61 65 86 100 111 111 101 102 117 115 119 118 116 125
101 92 96 98 88 85 82 82 76 71 69 73 84 84 72 63 67 72 77 85 102 111 119 129 135 135 130
113 114 105 104 102 111 105 96 85 90 90 81 74 70 74 81 68 62 59 96 97 99 105 104 101 103 107
135 124 102 112 114 114 116 125 127 102 102 97 90 87 89 88 82 68 99 97 99 92 83 72 72 79 89
114 113 116 113 125 128 122 132 135 120 105 109 102 95 95 89 85 73 108 88 94 99 86 84 85 83 81
126 109 104 118 112 136 135 143 146 128 128 128 123 115 112 104 92 107 115 83 94 97 82 79 75 78 80
111 97 92 88 112 153 150 157 142 132 119 139 120 129 118 114 116 117 90 68 66 72 61 47 59 57 51
185 143 132 134 108 126 146 140 147 132 125 145 126 130 126 115 106 95 79 58 56 61 48 45 51 50 47
215 209 191 172 166 134 129 142 150 138 121 130 127 138 142 126 103 81 71 69 66 56 50 39 41 40 41
243 264 249 169 188 168 164 156 141 140 121 129 126 123 135 125 109 96 74 62 58 61 49 52 33 31 29
232 224 208 211 241 259 206 159 162 133 126 129 124 117 116 119 115 103 94 86 59 53 65 41 40 46 33
212 222 252 241 197 211 261 224 186 187 142 110 115 109 108 101 107 112 106 91 82 50 42 35 42 44 41
204 216 239 237 209 238 255 287 186 223 211 170 141 116 108 126 138 123 96 78 63 52 42 18 46 61 59
207 221 217 221 199 235 235 248 210 259 231 199 214 189 189 143 68 78 71 66 59 50 32 24 42 77 71
185 205 216 235 213 247 245 265 233 232 201 178 199 189 137 125 94 31 70 71 51 45 37 38 51 98 73
Wind_Speed
50 47 44 40 39 38 38 37 37 41 39 39 39 37 36 34 33 33 33 33 32 31 30 31 32 34 36
54 50 47 45 43 41 38 35 35 39 39 37 35 33 32 32 32 33 32 33 32 32 33 34 34 34 35
53 49 49 48 48 44 41 39 35 37 37 35 32 31 31 30 30 32 33 32 31 32 34 36 37 38 40
52 54 53 50 49 49 46 40 39 38 38 36 33 31 30 29 30 32 32 31 32 35 37 39 41 44 46
56 56 55 54 52 49 49 48 44 40 39 37 34 34 35 35 33 31 28 31 34 38 41 44 46 47 48
57 58 58 56 52 51 50 49 48 40 41 40 37 37 37 39 37 30 28 32 33 38 44 46 47 50 51
60 58 59 54 53 52 50 48 48 43 44 46 41 42 39 39 37 29 33 34 36 42 46 49 52 54 55
52 56 55 53 51 52 50 48 49 47 44 51 44 45 42 40 36 34 36 35 40 47 49 50 54 56 57
52 53 54 52 48 47 50 51 55 51 43 49 48 48 45 43 38 34 36 38 43 51 52 53 55 58 59
55 54 52 49 45 46 49 53 54 57 46 49 48 47 50 43 41 39 41 44 45 51 52 51 53 58 60
57 57 54 51 49 47 48 49 55 57 46 42 46 46 49 50 45 43 43 45 45 51 47 54 56 62 67
59 59 55 54 51 47 46 46 45 49 42 41 50 48 48 51 52 44 43 44 49 50 55 50 59 65 65
61 58 50 48 46 47 46 46 48 44 43 41 44 45 49 51 51 49 54 50 53 49 49 60 64 66 69
55 51 46 46 48 45 48 49 46 51 43 44 44 42 49 50 51 53 53 53 49 53 59 63 66 65 62
45 46 46 47 48 44 46 47 49 45 50 41 40 42 46 49 52 56 57 53 51 56 60 69 68 65 60
43 43 44 42 41 40 42 40 45 46 45 41 41 47 49 52 44 56 53 52 51 56 63 66 68 60 57
38 38 40 43 37 34 32 37 39 36 43 39 38 42 52 55 49 30 48 50 54 61 60 61 65 64 59
Wind_Direction
328 335 340 347 352 358 4 10 14 15 20 25 28 26 24 21 13 360 348 342 341 339 337 335 333 331 328
320 325 330 334 339 344 351 359 4 4 7 14 17 24 26 21 16 8 2 355 351 347 344 341 339 336 332
319 323 324 326 328 331 334 339 346 351 357 1 9 14 15 16 14 3 358 357 356 351 345 340 336 333 329
316 316 318 320 321 321 322 328 330 335 339 344 348 355 359 0 359 356 354 353 349 342 338 335 332 328 325
312 314 314 316 316 319 317 319 321 323 324 327 330 332 335 338 341 344 348 347 343 339 335 329 327 325 323
310 310 311 312 313 313 313 314 315 320 318 318 320 320 322 325 329 334 338 338 338 335 330 328 326 323 322
307 308 309 310 311 309 307 308 308 313 314 312 314 311 313 317 320 324 327 328 330 331 330 327 324 321 321
304 307 307 309 308 309 308 307 308 308 310 307 311 309 311 312 313 316 321 323 323 324 325 326 323 320 319
302 304 305 305 304 305 303 303 303 304 305 305 307 307 308 308 310 311 316 317 319 319 321 321 321 318 315
300 301 302 302 300 299 301 298 300 303 304 301 304 306 306 309 307 307 311 312 315 317 321 322 323 317 313
297 297 298 298 298 298 298 298 297 297 305 303 304 303 303 305 310 310 310 312 315 318 323 320 318 313 310
296 293 293 294 294 295 298 299 300 300 303 302 301 301 301 303 304 312 313 313 316 318 320 322 317 313 313
295 294 293 295 295 295 296 298 297 301 301 301 301 302 299 300 303 307 309 314 313 318 321 318 314 312 313
297 296 297 295 294 291 290 291 296 295 300 299 299 300 299 298 300 303 307 310 316 316 316 315 312 313 317
300 297 295 294 293 292 289 290 288 298 295 300 302 300 299 299 301 301 304 308 312 313 314 310 312 316 321
299 296 294 294 295 295 289 286 287 291 294 298 298 297 299 301 297 300 305 307 309 312 312 313 316 325 326
302 297 295 293 290 289 287 288 287 291 289 295 295 295 296 298 305 310 303 305 308 309 314 318 319 324 327